Puebla, Mexico

2:19 AM CDT on September 21, 2017 (GMT -0500)
Hermanos Serdan International

Weather History for MMPB - July, 2013

Change the Weather History Date:

Tuesday, July 9, 2013

  Actual Average Record
Temperature  
Mean Temperature 64 °F -  
Max Temperature 79 °F 72 °F 80 °F (2016)
Min Temperature 48 °F 51 °F 48 °F (2013)
Degree Days  
Heating Degree Days 2    
Growing Degree Days 14 (Base 50)    
Moisture  
Dew Point 47 °F    
Average Humidity 53    
Maximum Humidity 87    
Minimum Humidity 18    
Precipitation  
Precipitation 0.01 in - - ()
Sea Level Pressure  
Sea Level Pressure 30.27 in    
Wind  
Wind Speed 5 mph ()    
Max Wind Speed 14 mph    
Max Gust Speed -    
Visibility 9.0 miles    
Events      
Averages and records for this station are not official NWS values.
T = Trace of Precipitation, MM = Missing Value Source: Averaged Metar Reports

Daily Weather History Graph

Daily Weather History Graph

Search for Another Location

Airport or City:

Trip Planner

Search our weather history database for the weather conditions in past years. The results will help you decide how hot, cold, wet, or windy it might be!

Date:

Astronomy

Jul. 09, 2013 Rise Set
Actual Time 7:01 AM CDT 8:14 PM CDT
Civil Twilight 6:37 AM CDT 8:38 PM CDT
Nautical Twilight 6:08 AM CDT 9:07 PM CDT
Astronomical Twilight 5:39 AM CDT 9:36 PM CDT
Moon 8:10 AM CDT (7/9) 9:13 PM CDT (7/9)
Length of Visible Light 14h 00m
Length of Day
13h 12m
New Moon, 2% of the Moon is Illuminated
Jul 9
New Moon
Jul 15
First Quarter
Jul 22
Full
Jul 29
Last Quarter
Aug 6
New

Hourly Weather History & Observations

Time (CDT) Temp. Dew Point Humidity Pressure Visibility Wind Dir Wind Speed Gust Speed Precip Events Conditions
5:49 AM 50.0 °F 46.4 °F 87% 30.41 in 8.0 mi North 3.5 mph - N/A   Clear
6:44 AM 48.2 °F 44.6 °F 87% 30.41 in 10.0 mi North 4.6 mph - N/A   Partly Cloudy
7:45 AM 51.8 °F 46.4 °F 82% 30.43 in 10.0 mi NNW 6.9 mph - N/A   Mostly Cloudy
8:47 AM 57.2 °F 48.2 °F 72% 30.44 in 10.0 mi NNW 6.9 mph - N/A   Mostly Cloudy
9:40 AM 62.6 °F 50.0 °F 63% 30.44 in 10.0 mi NNW 4.6 mph - N/A   Mostly Cloudy
9:50 AM 62 °F 44 °F 39% 30.05 in 3 mi East 2.2 mph - -   Haze
10:46 AM 66.2 °F 50.0 °F 56% 30.45 in 10.0 mi NE 5.8 mph - N/A   Mostly Cloudy
11:40 AM 71.6 °F 46.4 °F 41% 30.44 in 10.0 mi NNE 6.9 mph - N/A   Scattered Clouds
12:45 PM 73.4 °F 42.8 °F 33% 30.43 in 10.0 mi NNW 3.5 mph - N/A   Scattered Clouds
12:50 PM 75 °F 40 °F 18% 30.01 in 6 mi West 4.5 mph - -   Haze
1:43 PM 75.2 °F 42.8 °F 31% 30.42 in 10.0 mi NNE 5.8 mph - N/A   Scattered Clouds
2:43 PM 77.0 °F 42.8 °F 29% 30.39 in 10.0 mi Calm Calm - N/A   Scattered Clouds
3:40 PM 77 °F 43 °F 19% 29.85 in 12 mi ESE 2.2 mph - -   Partly Cloudy
3:48 PM 77.0 °F 41.0 °F 28% 30.36 in 10.0 mi North 4.6 mph - N/A   Mostly Cloudy
4:44 PM 75.2 °F 44.6 °F 34% 30.34 in 10.0 mi SE 8.1 mph - N/A   Mostly Cloudy
5:47 PM 73.4 °F 51.8 °F 47% 30.32 in 10.0 mi South 12.7 mph - N/A   Mostly Cloudy
6:40 PM 64 °F 41 °F 31% 29.77 in 12 mi ENE 6.7 mph - -   Overcast
6:44 PM 66.2 °F 50.0 °F 56% 30.35 in 10.0 mi East 13.8 mph - N/A   Overcast
7:45 PM 62.6 °F 51.8 °F 68% 30.37 in 10.0 mi East 6.9 mph - N/A   Overcast
8:45 PM 60.8 °F 51.8 °F 72% 30.40 in 10.0 mi West 4.6 mph - N/A   Overcast
9:41 PM 62.6 °F 51.8 °F 68% 30.40 in 10.0 mi West 3.5 mph - N/A   Overcast
9:45 PM 62 °F 52 °F 62% 29.77 in 3 mi ENE 2.2 mph - -   Partly Cloudy
9:50 PM 62 °F 50 °F 56% 29.80 in 3 mi Calm Calm - -   Partly Cloudy
10:49 PM 59.0 °F 53.6 °F 82% 30.41 in 10.0 mi NW 6.9 mph - N/A   Mostly Cloudy